Wind_Speed
17 17 18 18 17 21 22 16 10 10 4 3 6 10 11 10 9 14 15 9 10 11 11 13 11 5 9 2 3 2 2 7 8 9 6 7 7 7 1 4 8 9 11 12 12
18 18 19 19 18 24 18 11 8 9 4 4 8 11 11 5 9 20 14 12 11 9 11 11 7 10 2 2 2 2 4 5 5 7 7 7 6 4 5 4 9 10 13 14 18
19 19 20 20 22 22 14 10 9 8 4 5 8 11 5 5 2 11 17 14 12 11 9 10 9 5 0 1 5 4 4 1 5 4 6 6 6 5 6 7 7 7 8 10 13
19 20 20 18 23 15 11 10 10 9 5 5 9 10 4 4 3 13 16 17 13 12 8 8 3 1 1 5 2 3 5 5 2 5 5 5 5 5 7 5 7 6 8 10 11
20 21 20 18 23 11 10 9 11 10 9 8 9 4 3 9 8 14 15 13 12 10 13 7 9 5 5 4 4 7 4 2 4 1 3 7 1 4 7 6 6 4 8 10 9
21 22 18 20 20 10 9 9 11 11 11 10 4 7 1 8 9 14 12 11 13 14 12 13 6 5 4 5 6 3 2 3 2 4 5 9 11 2 7 9 8 6 10 9 9
21 22 18 20 15 9 9 9 11 12 10 10 10 14 20 7 11 13 12 8 10 11 9 11 11 6 6 1 3 3 4 6 6 6 5 11 7 8 9 5 6 9 10 9 9
20 22 17 20 9 8 7 9 8 8 8 5 7 14 6 6 11 15 14 9 8 8 7 7 7 5 2 2 5 5 2 2 6 6 5 8 7 11 3 6 5 7 8 8 8
20 20 16 18 6 8 11 12 12 8 6 8 10 9 6 12 20 16 14 11 10 5 4 3 6 4 12 11 3 10 7 11 8 11 8 7 10 10 14 8 4 7 8 7 6
19 18 13 17 7 12 10 13 23 17 6 4 12 12 10 9 15 19 21 10 5 12 6 2 1 12 11 12 5 10 7 8 6 9 6 12 15 10 11 7 5 5 7 5 7
19 18 13 14 10 5 4 4 3 5 19 11 10 11 10 13 10 26 34 10 9 4 5 10 10 8 8 5 5 6 7 10 9 9 14 8 16 15 10 9 8 6 7 8 8
19 18 14 10 20 5 6 5 3 2 10 14 14 12 12 14 8 21 27 8 6 9 9 6 8 7 7 8 9 7 8 7 11 12 17 14 20 6 10 8 9 9 9 8 9
18 18 17 6 8 14 19 9 2 4 3 5 8 7 13 9 8 15 17 11 5 9 9 9 5 8 2 7 11 10 5 9 13 21 16 9 5 6 9 9 7 6 9 10 9
17 18 16 3 5 5 6 8 4 4 3 6 8 6 12 2 5 15 17 4 6 8 6 6 7 5 5 6 10 7 9 15 17 12 4 7 6 2 9 8 5 9 9 8 8
16 17 12 17 3 5 7 6 3 2 3 5 4 5 9 8 8 12 15 6 6 5 4 4 5 8 5 5 6 5 12 20 20 16 12 8 3 4 9 9 12 11 10 10 11
14 15 8 5 11 6 5 2 1 2 4 3 4 9 5 9 7 6 9 9 1 4 5 4 3 4 6 12 9 9 14 23 14 7 2 12 6 4 5 5 5 8 9 9 9
11 11 15 10 4 8 3 3 2 5 1 4 5 6 4 9 7 9 12 16 9 7 6 4 4 4 8 8 5 16 10 5 5 1 6 21 10 7 9 6 7 10 9 8 8
9 7 8 11 7 5 2 3 4 5 6 1 2 3 5 9 5 11 5 5 13 10 5 5 1 7 6 4 6 10 4 2 6 4 13 13 3 3 7 6 8 8 8 9 9
7 4 5 12 9 4 3 5 5 5 4 6 3 4 4 4 2 3 7 6 9 13 6 7 1 1 6 1 3 6 6 5 6 10 9 4 5 10 17 22 15 18 14 12 10
3 0 5 14 7 3 2 6 4 6 6 4 6 6 6 7 8 7 7 8 4 9 8 3 6 1 4 4 5 2 2 4 3 5 6 7 22 9 23 26 20 16 16 14 11
1 2 10 11 6 1 4 5 6 6 5 8 5 2 4 4 5 5 6 5 8 8 8 6 3 1 9 5 7 3 4 4 5 4 7 10 7 17 22 21 20 16 17 14 12
5 1 15 15 2 4 4 3 0 4 4 5 5 9 6 7 6 4 6 6 7 9 7 6 4 4 11 10 7 6 8 6 2 7 7 10 17 10 21 23 21 16 14 16 15
3 2 11 8 3 4 6 5 6 3 7 4 5 7 4 4 1 6 5 2 8 10 9 8 2 5 1 3 2 6 6 10 10 6 15 10 12 16 20 21 23 24 19 13 18
2 2 4 6 5 8 6 5 4 6 5 5 4 2 2 4 6 3 4 4 2 7 4 3 3 3 4 10 9 15 17 9 7 7 13 13 21 18 16 17 19 24 19 18 18
4 3 0 3 7 9 6 4 4 3 4 4 3 8 5 3 1 3 5 5 7 2 2 4 3 6 9 15 15 15 18 12 10 11 7 17 19 11 14 21 17 16 20 20 19
3 2 4 2 2 4 3 1 5 5 5 3 4 6 4 5 5 4 6 6 2 4 7 4 3 9 10 10 16 17 11 16 16 15 14 17 19 13 14 18 19 19 17 17 18
4 2 1 3 1 1 2 3 6 8 4 6 7 4 6 7 6 6 5 5 5 5 4 3 4 5 3 15 18 2 11 11 12 13 14 19 13 19 20 18 18 22 12 17 20
Wind_Direction
6 4 1 359 355 351 345 345 358 6 15 86 104 130 138 116 67 46 40 342 333 340 320 288 265 247 251 192 259 228 289 41 31 22 71 43 353 42 270 280 70 53 44 19 0
4 3 360 358 356 350 351 3 22 10 37 108 136 152 145 129 84 53 4 352 347 348 343 348 1 303 168 284 207 332 48 49 14 45 4 347 335 7 320 36 51 35 31 24 41
5 2 359 358 357 356 13 35 26 23 46 119 142 151 158 317 100 28 358 2 5 351 303 288 279 282 91 25 358 18 74 336 66 48 330 314 334 326 353 68 56 41 18 16 51
5 3 3 5 359 13 28 31 27 30 57 116 149 169 231 308 76 359 355 3 359 353 339 303 259 269 65 52 2 165 79 14 57 36 321 339 300 102 68 83 73 60 33 30 31
6 5 5 7 3 25 29 39 39 50 76 104 132 171 311 72 37 355 359 4 8 7 18 353 17 325 49 32 340 50 32 2 48 80 1 322 7 355 122 121 110 81 61 46 36
7 7 9 6 5 26 42 54 55 71 89 100 93 342 355 75 348 355 355 6 13 5 31 18 9 327 341 29 20 1 342 109 64 93 69 352 315 127 139 167 178 174 91 67 48
7 7 9 7 13 37 57 65 69 79 89 86 78 72 64 39 359 2 355 10 9 18 18 12 337 17 306 317 325 289 202 187 90 13 46 335 273 202 123 179 7 8 100 76 46
8 7 9 9 23 30 73 76 77 71 84 78 54 69 75 27 20 13 9 15 8 26 15 353 323 288 335 306 224 233 264 16 109 48 58 21 303 9 266 85 27 15 83 102 77
11 9 11 15 49 73 93 82 74 69 70 24 10 107 63 25 17 15 4 348 334 289 312 316 306 352 23 330 221 56 4 359 339 61 13 23 282 275 310 49 6 33 59 68 103
11 12 14 20 82 99 100 96 74 39 355 18 8 108 38 12 11 11 359 317 288 297 177 340 289 50 31 27 34 334 341 317 317 337 347 307 275 284 316 79 30 71 106 77 59
13 12 13 23 44 207 358 261 227 64 55 64 45 76 31 353 44 10 350 314 349 31 44 40 62 39 9 34 323 274 312 307 343 319 337 281 287 277 270 135 121 90 58 44 18
15 12 16 37 42 101 43 61 41 22 76 48 65 58 22 358 19 7 1 19 8 27 5 90 57 14 338 29 343 323 304 331 299 334 315 294 290 332 53 62 56 61 37 27 24
15 15 20 43 57 50 74 60 26 356 129 62 66 31 18 30 34 6 3 331 21 33 52 71 36 339 6 44 356 340 23 326 300 319 284 314 290 119 85 89 90 107 53 29 19
17 17 24 20 57 8 53 353 350 352 149 30 11 23 2 342 66 32 4 325 11 30 17 58 28 354 30 38 0 314 13 315 300 313 307 10 289 328 131 114 139 65 45 11 5
16 18 39 55 39 43 329 336 335 305 204 19 32 305 45 62 346 6 28 354 37 11 273 75 29 2 26 359 341 292 325 290 285 281 288 292 340 99 147 85 51 35 19 13 10
12 21 44 49 45 13 345 15 339 231 78 69 35 4 42 41 43 10 26 11 305 306 72 81 86 40 359 322 297 298 312 294 267 233 247 39 359 267 58 61 55 27 18 8 352
11 31 47 29 358 331 1 233 227 35 253 56 1 351 74 15 28 12 69 48 26 342 19 185 104 103 8 328 342 0 347 333 353 241 268 12 342 61 85 67 19 12 7 345 344
12 34 29 22 343 351 260 229 55 75 50 189 346 75 65 6 67 41 70 52 33 5 305 345 290 14 22 42 313 318 358 346 298 334 299 324 295 78 122 54 17 7 359 352 346
29 48 42 341 343 33 270 53 23 24 358 349 246 281 120 66 275 32 73 40 31 18 21 348 329 317 78 339 5 1 47 299 285 262 264 251 317 334 340 353 7 357 358 344 357
61 267 26 343 335 297 60 94 93 27 350 297 13 4 11 23 359 15 45 21 40 32 344 41 289 354 307 265 169 227 218 21 290 310 309 305 309 302 344 339 348 352 354 353 355
311 237 348 347 323 19 72 72 109 57 8 16 21 35 77 27 10 21 45 66 18 355 307 346 216 293 323 21 29 13 353 350 339 309 291 304 289 342 309 336 335 7 346 349 344
290 74 350 351 31 46 52 63 127 63 38 53 50 42 28 28 30 48 37 33 15 345 359 38 316 302 312 87 85 75 27 359 12 305 300 284 287 309 340 346 349 346 345 343 340
28 21 3 348 66 78 115 82 52 90 32 41 73 41 31 53 36 35 47 56 28 10 21 348 346 317 195 111 134 21 354 327 298 288 284 289 291 322 1 351 344 341 321 344 340
39 35 14 31 356 108 120 114 105 31 74 56 93 69 69 57 57 57 37 93 66 30 346 270 291 292 267 300 327 312 310 298 275 272 283 295 321 351 353 346 344 318 328 337 339
21 62 20 20 26 38 36 28 101 90 59 37 55 49 53 52 3 64 41 7 117 128 295 26 286 315 322 301 294 295 334 348 4 347 341 331 334 353 349 321 307 313 323 341 329
81 102 48 75 316 75 30 53 116 92 15 78 120 98 53 60 26 19 15 47 2 7 351 67 287 322 302 309 336 314 0 357 355 354 336 334 325 2 323 313 323 332 347 331 318
74 66 81 283 47 353 12 90 124 125 46 40 107 127 92 70 10 7 342 329 321 338 334 347 326 334 288 344 298 70 22 356 346 332 330 334 345 327 320 324 328 326 333 303 326
Height
803 801 798 796 793 789 785 782 781 779 778 777 778 778 778 779 780 782 782 786 783 779 776 773 772 770 768 766 767 764 786 792 790 787 782 769 773 764 761 765 765 768 774 775 774
803 800 797 794 791 788 784 781 781 780 778 778 778 778 779 780 781 783 788 785 783 780 777 773 771 767 768 767 766 772 788 789 778 780 785 775 775 772 772 769 779 778 777 777 777
803 800 796 793 790 786 783 782 781 780 779 779 779 780 781 781 779 788 788 785 782 779 777 774 771 767 769 767 770 771 789 777 778 780 778 777 774 769 776 787 785 787 784 781 780
803 800 796 793 789 786 784 783 782 780 780 780 781 781 781 782 799 791 788 785 781 777 775 770 766 770 774 779 769 781 777 777 778 777 779 780 774 777 780 787 782 784 785 786 787
804 800 797 794 790 787 786 784 783 782 781 782 782 783 783 785 795 793 789 786 782 779 777 773 774 773 780 775 772 779 780 775 776 778 778 776 776 777 783 782 782 783 787 791 793
804 801 798 795 791 789 787 786 785 784 784 784 784 783 784 799 797 794 791 788 785 781 779 778 778 775 776 779 783 779 778 778 776 779 780 786 782 777 779 779 780 781 788 793 797
805 801 798 795 791 790 789 788 788 788 787 787 787 787 789 802 797 794 791 789 787 786 783 782 779 777 777 780 778 777 786 781 781 781 788 784 782 782 777 778 781 784 791 796 800
805 802 799 796 792 792 791 791 790 790 789 788 788 788 799 800 799 795 792 790 788 787 785 783 780 777 779 775 778 781 780 795 787 784 787 793 807 786 775 780 786 787 791 796 801
806 803 800 797 793 793 793 793 793 792 792 790 788 788 804 802 799 797 795 792 788 785 785 782 780 783 783 790 790 794 817 810 800 786 794 798 806 785 777 781 785 787 791 795 798
807 804 801 798 796 795 794 794 794 795 793 792 792 797 805 807 803 799 795 792 789 784 783 782 783 802 806 810 837 828 821 811 807 797 796 801 798 784 779 785 790 790 793 796 800
808 805 802 801 797 797 796 796 798 799 800 808 810 808 810 807 804 802 795 791 784 785 798 793 814 829 822 816 816 815 815 814 806 795 803 797 792 781 772 780 789 794 798 802 803
809 806 803 801 800 797 798 800 808 810 815 809 810 811 811 807 808 807 802 797 795 807 794 808 831 822 815 815 818 810 813 817 812 799 807 795 791 783 782 792 798 804 810 811 812
810 807 803 802 802 802 803 808 808 809 808 816 812 815 814 814 820 818 812 805 806 811 810 824 828 817 816 824 828 821 827 830 830 812 800 797 788 793 796 800 804 805 810 812 815
811 807 804 802 804 805 808 810 810 810 810 826 820 820 816 815 823 821 817 815 810 822 817 826 823 822 821 828 834 833 829 830 825 825 825 804 821 794 803 808 807 813 816 817 817
811 809 807 804 807 808 813 810 810 811 826 830 825 821 819 825 830 827 821 816 827 823 820 838 834 834 832 839 835 835 829 825 820 821 820 803 819 806 800 811 819 816 816 817 817
813 811 809 809 808 812 810 810 811 821 850 837 829 830 826 828 831 827 829 824 825 824 827 834 832 838 843 835 829 828 824 810 803 814 827 819 830 813 815 822 822 821 820 819 818
814 813 811 812 814 811 811 811 818 831 832 842 842 836 836 843 839 834 837 848 856 850 840 829 837 839 841 840 829 839 840 841 829 826 822 806 825 829 822 822 821 822 818 816 814
815 814 815 814 813 812 812 812 825 834 843 840 843 838 846 847 844 845 839 855 859 857 855 854 847 845 844 850 853 848 848 862 865 853 843 826 831 830 820 821 821 820 818 817 815
816 815 816 814 812 811 812 829 854 847 848 850 839 837 845 845 847 837 863 867 876 871 872 866 851 840 846 847 852 853 865 863 866 853 856 833 813 812 813 819 822 823 820 819 815
816 815 816 814 812 812 813 847 856 857 854 847 848 851 851 859 853 853 860 876 874 876 873 869 877 848 847 846 850 857 860 876 868 895 876 842 838 836 837 832 827 823 822 818 813
816 815 818 814 813 812 837 852 858 859 858 857 855 853 860 862 861 861 870 884 883 880 875 874 875 856 850 852 861 864 868 867 870 871 881 875 855 842 840 835 830 828 829 821 817
817 819 820 815 821 829 849 851 861 860 859 861 861 865 869 871 869 871 881 888 890 886 883 883 886 883 864 863 863 868 877 881 906 900 894 894 870 847 843 843 834 829 827 824 818
822 825 823 818 841 853 857 864 862 861 869 866 870 871 870 875 878 877 882 895 896 896 899 896 883 894 870 872 868 876 878 883 890 896 895 902 876 849 859 861 855 849 838 824 820
829 838 834 832 836 842 852 861 873 872 872 872 873 871 873 878 881 885 882 891 896 901 901 899 893 895 906 895 893 891 883 882 883 894 883 881 867 860 870 866 858 855 835 826 821
836 854 858 863 862 862 859 861 872 878 877 876 881 881 885 899 884 886 887 890 893 901 898 902 910 896 894 891 886 879 883 880 892 882 889 879 878 874 877 870 853 844 837 827 822
846 853 862 875 869 866 872 869 871 878 878 881 879 881 886 892 896 896 898 897 896 898 901 904 911 902 902 886 887 888 885 888 887 884 885 881 880 880 872 859 849 843 836 832 826
851 854 855 878 866 865 872 869 872 878 885 880 879 886 888 899 906 905 905 904 904 908 907 912 913 914 905 901 890 890 897 894 892 888 885 890 890 877 866 855 849 842 841 834 824